Date,TemperatureHighF,TemperatureAvgF,TemperatureLowF,DewpointHighF,DewpointAvgF,DewpointLowF,HumidityHigh,HumidityAvg,HumidityLow,PressureMaxIn,PressureMinIn,WindSpeedMaxMPH,WindSpeedAvgMPH,GustSpeedMaxMPH,PrecipitationSumIn
2013-2-1,20,18,16,-100,-100,-100,0,0,100,0.00,40.00,0,-999,0,0.01
2013-2-2,28,20,13,-100,-100,-100,0,0,100,0.00,40.00,0,-999,0,0.00
2013-2-3,33,22,10,-100,-100,-100,0,0,100,0.00,40.00,0,-999,0,0.00
2013-2-4,30,20,9,-100,-100,-100,0,0,100,0.00,40.00,0,-999,0,0.00
2013-2-5,31,23,15,-100,-100,-100,0,0,100,0.00,40.00,0,-999,0,0.00
2013-2-6,28,23,16,-100,-100,-100,0,0,100,0.00,40.00,0,-999,0,0.01
2013-2-7,26,15,6,-100,-100,-100,0,0,100,0.00,40.00,0,-999,0,0.01
2013-2-8,36,23,7,-100,-100,-100,0,0,100,0.00,40.00,0,-999,0,0.00
2013-2-9,25,17,12,-100,-100,-100,0,0,100,0.00,40.00,0,-999,0,0.00
2013-2-10,17,10,2,-100,-100,-100,0,0,100,0.00,40.00,0,-999,0,0.01
2013-2-11,17,9,2,-100,-100,-100,0,0,100,0.00,40.00,0,-999,0,0.00
2013-2-12,15,3,-8,-100,-100,-100,0,0,100,0.00,40.00,0,-999,0,0.01
2013-2-13,20,12,4,-100,-100,-100,0,0,100,0.00,40.00,0,-999,0,0.01
2013-2-14,22,16,12,-100,-100,-100,0,0,100,0.00,40.00,0,-999,0,0.01
2013-2-15,15,12,9,-100,-100,-100,0,0,100,0.00,40.00,0,-999,0,0.01
2013-2-16,29,17,9,-100,-100,-100,0,0,100,0.00,40.00,0,-999,0,0.01
2013-2-17,32,21,10,-100,-100,-100,0,0,100,0.00,40.00,0,-999,0,0.00
2013-2-18,16,10,6,-100,-100,-100,0,0,100,0.00,40.00,0,-999,0,0.01
2013-2-19,34,19,1,-100,-100,-100,0,0,100,0.00,40.00,0,-999,0,0.00
2013-2-20,31,24,13,-100,-100,-100,0,0,100,0.00,40.00,0,-999,0,0.00
2013-2-21,21,16,11,-100,-100,-100,0,0,100,0.00,40.00,0,-999,0,0.00
2013-2-22,15,9,1,-100,-100,-100,0,0,100,0.00,40.00,0,-999,0,0.00
2013-2-23,19,8,3,-100,-100,-100,0,0,100,0.00,40.00,0,-999,0,0.00
2013-2-26,14,11,8,-100,-100,-100,0,0,100,0.00,40.00,0,-999,0,0.00
2013-2-27,14,4,-4,-100,-100,-100,0,0,100,0.00,40.00,0,-999,0,0.01
2013-2-28,18,8,-3,-100,-100,-100,0,0,100,0.00,40.00,0,-999,0,0.00